Regional Weather Roundup
Issued by NWS

Home | Current Version | Previous Version | Text Only | Print | Product List | Glossary On
Versions: 1 2 3 4 5 6 7 8 9 10 11 12 13 14 15 16 17 18 19 20 21 22 23 24 25 26 27 28 29 30 31 32 33 34 35 36 37 38 39 40 41 42 43 44 45 46 47 48 49 50
000
ASUS44 KLIX 311910
RWRLA
LOUISIANA WEATHER ROUNDUP
NATIONAL WEATHER SERVICE NEW ORLEANS LA
200 PM CDT MON AUG 31 2015

NOTE: "FAIR" INDICATES FEW OR NO CLOUDS BELOW 12,000 FEET WITH NO
      SIGNIFICANT WEATHER AND/OR OBSTRUCTIONS TO VISIBILITY.
      SKY/WX - SKY CONDITION AND SIGNIFICANT WEATHER.
      TMP - AIR TEMPERATURE.    DP   - DEWPOINT TEMPERATURE.
      RH  - RELATIVE HUMIDITY.  PRES - PRESSURE.
      HX  - HEAT INDEX.         WCI  - WIND CHILL INDEX.

*  THESE STATIONS ARE NOT NWS OR FAA STATIONS AND ARE NOT UNDER
   NWS QUALITY CONTROL.

LAZ040-048-061>063-065-066-069-312000-
SOUTHEAST LOUISIANA

CITY           SKY/WX    TMP DP  RH WIND       PRES   REMARKS
N.O. AUDUBON     N/A    N/A N/A N/A MISG        N/A
N.O. INTL ARPT MOSUNNY   92  65  40 NE8       30.05F
N.O. LAKEFRONT MOSUNNY   90  67  46 NW6       30.06F
N.O. DOWNTOWN* FAIR      91  61  35 NW3       30.06F
RESERVE*       FAIR      93  69  45 E3        30.05S HX  97
SLIDELL        SUNNY     92  66  42 VRB3      30.03F
BATON ROUGE    CLOUDY    90  71  53 CALM      30.06S HX  96
BOOTHVILLE     MOSUNNY   88  71  57 NE8       30.07F
BELLE CHASSE   PTSUNNY   91  68  46 E8        30.05F HX  95
BOGALUSA*      NOT AVBL
GALLIANO*      CLEAR     92  66  42 CALM      30.05S HX  95
NEW ROADS*     FAIR      85  72  65 CALM      30.07R
GONZALES*      FAIR      87  70  57 CALM      30.05R
HAMMOND*       MOSUNNY   93  61  33 CALM      30.06S
HOUMA*         NOT AVBL
PORT FOURCHON* CLEAR     88  70  55 E12       30.06F

$$

LAZ041-044-053-054-312000-
SOUTHWEST LOUISIANA

CITY           SKY/WX    TMP DP  RH WIND       PRES   REMARKS
LAKE CHARLES   CLOUDY    87  72  60 SE8       30.04F
LAFAYETTE      CLOUDY    80  71  74 MISG      30.07R
PATTERSON      CLOUDY    79  70  73 W13       30.08S
SALT POINT       N/A     79  74  84 N6        30.06S
NEW IBERIA     LGT RAIN  77  74  90 NW9       30.08R FOG
CHENAULT AIRPK NOT AVBL

$$

LAZ027-028-312000-
CENTRAL LOUISIANA

CITY           SKY/WX    TMP DP  RH WIND       PRES   REMARKS
FORT POLK      PTSUNNY   87  64  46 VRB6      30.04F
ALEXANDRIA INT PTSUNNY   93  65  39 VRB6      30.02F HX  95
ALEXANDRIA     MOSUNNY   94  66  39 VRB6      30.04F HX  97

$$

LAZ001-002-312000-
NORTHWEST LOUISIANA

CITY           SKY/WX    TMP DP  RH WIND       PRES   REMARKS
SHREVEPORT     MOSUNNY   91  64  40 S8        30.03F
BARKSDALE AFB  MOSUNNY   92  62  37 VRB3      30.03F
DTN SHREVEPORT SUNNY     89  63  41 SE6       30.03F

$$

LAZ014-016-312000-
NORTHEAST LOUISIANA

CITY           SKY/WX    TMP DP  RH WIND       PRES   REMARKS
MONROE         SUNNY     93  60  33 SE6       30.03F
TALLULAH       SUNNY     92  64  39 VRB3      30.04F

$$



USA.gov is the U.S. government's official web portal to all federal, state and local government web resources and services.